Find TurkmenAlem52E/MonacoSAT

NORAD ID: 40617 Int'l Des: 2015-023 Owner: SSIM/TMTEL Country: MC operational
HEOCIRCULARGSOGEO

当前视图

正在加载3D地球...

关于 TurkmenAlem52E/MonacoSAT

正在加载描述...

即将过境

Passes for default location (London). Set your location on the main map for personalized predictions.

高度历史

Loading altitude history...

两行轨道根数

1 40617U 15023A 26150.79860794 .00000116 00000-0 00000+0 0 9990
2 40617 0.0312 63.4624 0003223 1.8065 162.5631 1.00270265 40675
Epoch: May 30, 2026 • Age: 10 hours

当前状态

高度 35776.1 km
速度 3.08 km/s
星下点 0.01°N, 51.99°E
发射日期 Apr 27, 2015
运行时间 11 years
类型 other

技术详情

分类 Payload
质量 4700.00 kg
干质量 1823.00 kg
总质量 4700.00 kg
长度 4.50 m
直径 2.00 m
跨度 30.00 m
形状 Box+2 pan
制造商 THALES
平台类型 Spacebus 4000C2
阶段状态 In Orbit
所有者/国家 SSIM/TMTEL/MC

Most Searched